Harbor Springs, MI

8:15 PM EST on November 20, 2017 (GMT -0500)
Harbor Springs

Weather History for KMGN - October, 2012

Change the Weather History Date:

Saturday, October 6, 2012

  Actual Average (KPLN) Record (KPLN)
Temperature  
Mean Temperature 42 °F -  
Max Temperature 48 °F 57 °F 80 °F (1970)
Min Temperature 35 °F 37 °F 18 °F (1964)
Degree Days  
Heating Degree Days 24    
Moisture  
Dew Point 32 °F    
Average Humidity 69    
Maximum Humidity 86    
Minimum Humidity 51    
Precipitation  
Precipitation 0.00 in - - ()
Sea Level Pressure  
Sea Level Pressure 29.92 in    
Wind  
Wind Speed 10 mph (WNW)    
Max Wind Speed 18 mph    
Max Gust Speed 28 mph    
Visibility 9 miles    
Events Rain    
Averages and records for this station are not official NWS values.
T = Trace of Precipitation, MM = Missing Value Source: NWS Daily Summary

Daily Weather History Graph

Daily Weather History Graph

Search for Another Location

Airport or City:

Trip Planner

Search our weather history database for the weather conditions in past years. The results will help you decide how hot, cold, wet, or windy it might be!

Date:

Astronomy

Oct. 06, 2012 Rise Set
Actual Time 7:44 AM EDT 7:09 PM EDT
Civil Twilight 7:15 AM EDT 7:39 PM EDT
Nautical Twilight 6:41 AM EDT 8:13 PM EDT
Astronomical Twilight 6:06 AM EDT 8:47 PM EDT
Moon 11:11 PM EDT (10/6) 1:52 PM EDT (10/6)
Length of Visible Light 12h 23m
Length of Day
11h 24m
Waning Gibbous, 65% of the Moon is Illuminated
Oct 6
Waning Gibbous
Oct 8
Last Quarter
Oct 15
New
Oct 21
First Quarter
Oct 29
Full

Hourly Weather History & Observations

Time (EDT) Temp. Windchill Dew Point Humidity Pressure Visibility Wind Dir Wind Speed Gust Speed Precip Events Conditions
12:15 AM 46.2 °F 40.8 °F 29.3 °F 52% 29.82 in 10.0 mi West 11.5 mph 26.5 mph N/A   Overcast
12:35 AM 46.2 °F 39.8 °F 29.3 °F 52% 29.82 in 10.0 mi West 15.0 mph 21.9 mph N/A   Overcast
12:55 AM 45.9 °F 39.7 °F 30.4 °F 55% 29.81 in 10.0 mi West 13.8 mph 18.4 mph N/A   Drizzle
1:15 AM 45.9 °F 40.4 °F 32.0 °F 58% 29.81 in 10.0 mi West 11.5 mph 18.4 mph N/A Rain Light Rain
1:35 AM 43.3 °F 36.8 °F 32.0 °F 64% 29.81 in 10.0 mi WSW 12.7 mph 23.0 mph N/A Rain Rain
1:55 AM 41.2 °F 36.6 °F 33.8 °F 75% 29.81 in 5.0 mi West 6.9 mph 23.0 mph N/A Rain Rain
2:15 AM 41.2 °F 34.5 °F 33.6 °F 74% - 10.0 mi West 11.5 mph 20.7 mph N/A Rain Rain
2:55 AM 41.0 °F 36.4 °F 35.2 °F 80% 29.80 in 7.0 mi West 6.9 mph 19.6 mph N/A Rain Rain
3:15 AM 41.0 °F 34.3 °F 34.9 °F 79% 29.79 in 7.0 mi West 11.5 mph 19.6 mph N/A Rain Rain
3:35 AM 41.0 °F 35.8 °F 35.1 °F 79% 29.79 in 5.0 mi West 8.1 mph 18.4 mph N/A Rain Heavy Rain
3:55 AM 41.0 °F 34.7 °F 34.7 °F 78% 29.79 in 7.0 mi West 10.4 mph - N/A   Drizzle
4:15 AM 41.2 °F 36.0 °F 34.9 °F 78% 29.79 in 10.0 mi West 8.1 mph 16.1 mph N/A   Overcast
4:35 AM 41.9 °F 36.3 °F 34.9 °F 76% 29.79 in 10.0 mi West 9.2 mph 18.4 mph N/A   Overcast
4:55 AM 41.5 °F 35.9 °F 34.9 °F 77% 29.79 in 10.0 mi West 9.2 mph - N/A Rain Light Rain
5:35 AM 41.7 °F 35.6 °F 34.2 °F 75% 29.79 in 10.0 mi WNW 10.4 mph 18.4 mph N/A   Overcast
5:55 AM 41.9 °F 34.3 °F 33.8 °F 73% 29.79 in 10.0 mi West 15.0 mph 19.6 mph N/A   Overcast
6:15 AM 41.9 °F 34.6 °F 33.4 °F 72% 29.79 in 10.0 mi WNW 13.8 mph 21.9 mph N/A   Overcast
6:35 AM 41.5 °F 37.1 °F 33.1 °F 72% 29.79 in 10.0 mi West 6.9 mph 19.6 mph N/A   Mostly Cloudy
6:55 AM 41.5 °F 35.0 °F 33.1 °F 72% 29.80 in 10.0 mi West 11.5 mph 18.4 mph N/A   Mostly Cloudy
7:15 AM 41.7 °F 35.6 °F 32.9 °F 71% 29.80 in 10.0 mi WNW 10.4 mph - N/A   Mostly Cloudy
7:35 AM 41.0 °F 33.9 °F 33.1 °F 73% 29.81 in 5.0 mi WNW 12.7 mph 21.9 mph N/A Rain Rain
7:55 AM 39.6 °F 36.3 °F 34.2 °F 81% 29.82 in 10.0 mi West 4.6 mph - N/A Rain Light Rain
8:15 AM 40.3 °F 34.4 °F 34.7 °F 80% 29.82 in 7.0 mi WNW 9.2 mph - N/A Rain Light Rain
8:34 AM 41.0 °F 36.4 °F 35.2 °F 80% 29.83 in 7.0 mi WNW 6.9 mph - N/A   Drizzle
8:55 AM 39.6 °F 33.0 °F 34.0 °F 80% 29.84 in 7.0 mi WNW 10.4 mph - N/A Rain Light Rain
9:15 AM 39.9 °F 32.9 °F 34.3 °F 80% 29.85 in 3.0 mi West 11.5 mph 17.3 mph N/A Rain Heavy Rain
9:35 AM 41.0 °F 35.8 °F 35.1 °F 79% 29.86 in 10.0 mi WNW 8.1 mph - N/A   Mostly Cloudy
10:15 AM 41.9 °F 35.9 °F 33.1 °F 71% 29.87 in 10.0 mi WNW 10.4 mph 20.7 mph N/A   Mostly Cloudy
10:35 AM 42.4 °F 35.3 °F 32.7 °F 68% 29.88 in 10.0 mi West 13.8 mph 20.7 mph N/A   Mostly Cloudy
10:55 AM 44.1 °F 36.2 °F 33.4 °F 66% 29.88 in 10.0 mi WNW 18.4 mph 27.6 mph N/A   Scattered Clouds
11:15 AM 42.4 °F 35.7 °F 31.3 °F 65% 29.89 in 10.0 mi NW 12.7 mph 24.2 mph N/A   Mostly Cloudy
11:35 AM 45.9 °F 40.0 °F 32.7 °F 60% 29.89 in 10.0 mi NW 12.7 mph 23.0 mph N/A   Scattered Clouds
11:55 AM 45.9 °F 40.4 °F 31.8 °F 58% 29.90 in 10.0 mi West 11.5 mph 23.0 mph N/A   Scattered Clouds
12:15 PM 46.8 °F - 33.3 °F 59% 29.91 in 7.0 mi WNW 15.0 mph 24.2 mph N/A   Mostly Cloudy
12:35 PM 41.5 °F 35.4 °F 33.4 °F 73% 29.93 in 10.0 mi NNW 10.4 mph 19.6 mph N/A   Light Drizzle
12:55 PM 43.7 °F 37.7 °F 32.7 °F 65% 29.93 in 10.0 mi WNW 11.5 mph 18.4 mph N/A   Mostly Cloudy
1:15 PM 46.6 °F - 32.5 °F 58% 29.92 in 10.0 mi WNW 13.8 mph 21.9 mph N/A   Scattered Clouds
1:35 PM 41.2 °F 35.5 °F 32.2 °F 70% 29.94 in 7.0 mi NW 9.2 mph 20.7 mph N/A Rain Light Rain
1:55 PM 48.4 °F - 35.4 °F 61% 29.94 in 10.0 mi NW 16.1 mph 21.9 mph N/A   Mostly Cloudy
2:14 PM 45.5 °F 40.8 °F 32.0 °F 59% 29.94 in 10.0 mi NW 9.2 mph 21.9 mph N/A   Scattered Clouds
2:35 PM 46.9 °F - 32.4 °F 57% 29.94 in 10.0 mi WNW 10.4 mph 18.4 mph N/A   Scattered Clouds
2:55 PM 48.4 °F - 31.1 °F 51% 29.94 in 10.0 mi WNW 11.5 mph 19.6 mph N/A   Scattered Clouds
3:14 PM 48.4 °F - 31.3 °F 52% 29.95 in 10.0 mi WNW 12.7 mph 18.4 mph N/A   Scattered Clouds
3:35 PM 43.0 °F 38.2 °F 31.1 °F 63% 29.96 in 10.0 mi NW 8.1 mph 20.7 mph N/A   Mostly Cloudy
3:55 PM 46.4 °F 41.5 °F 32.2 °F 58% 29.97 in 10.0 mi West 10.4 mph 19.6 mph N/A   Scattered Clouds
4:15 PM 46.9 °F - 30.9 °F 54% 29.97 in 10.0 mi NNW 15.0 mph 21.9 mph N/A   Scattered Clouds
4:35 PM 41.7 °F 34.4 °F 33.3 °F 72% 29.98 in 10.0 mi West 13.8 mph - N/A   Mostly Cloudy
4:55 PM 43.0 °F 36.4 °F 34.0 °F 71% 29.98 in 10.0 mi WNW 12.7 mph 19.6 mph N/A   Scattered Clouds
5:15 PM 43.3 °F 37.7 °F 31.6 °F 63% 29.99 in 10.0 mi NW 10.4 mph 18.4 mph N/A   Scattered Clouds
5:35 PM 43.5 °F 38.9 °F 31.3 °F 62% 29.99 in 10.0 mi NW 8.1 mph 17.3 mph N/A   Mostly Cloudy
5:55 PM 42.1 °F 37.1 °F 30.7 °F 64% 30.00 in 10.0 mi WNW 8.1 mph - N/A   Scattered Clouds
6:15 PM 40.1 °F 33.6 °F 31.5 °F 71% 30.01 in 5.0 mi NNW 10.4 mph 20.7 mph N/A Rain Rain
6:35 PM 39.2 °F 35.0 °F 32.0 °F 75% 30.01 in 10.0 mi WNW 5.8 mph - N/A   Mostly Cloudy
6:55 PM 39.2 °F - 32.0 °F 75% 30.02 in 5.0 mi Calm Calm - N/A   Light Drizzle
7:15 PM 38.3 °F 34.8 °F 32.0 °F 78% 30.03 in 10.0 mi WNW 4.6 mph - N/A   Clear
7:35 PM 38.3 °F - 30.9 °F 75% 30.03 in 10.0 mi Calm Calm - N/A   Scattered Clouds
7:54 PM 38.3 °F - 31.5 °F 76% 30.04 in 10.0 mi Calm Calm - N/A   Mostly Cloudy
8:15 PM 38.3 °F - 32.5 °F 80% 30.04 in 10.0 mi Calm Calm - N/A   Mostly Cloudy
8:35 PM 37.6 °F - 32.0 °F 80% 30.04 in 10.0 mi Calm Calm - N/A   Mostly Cloudy
8:54 PM 38.7 °F 36.3 °F 29.1 °F 69% 30.05 in 10.0 mi NW 3.5 mph - N/A   Overcast
9:15 PM 40.1 °F 35.3 °F 28.0 °F 62% 30.06 in 10.0 mi NNW 6.9 mph - N/A   Overcast
9:35 PM 39.6 °F 36.3 °F 27.9 °F 63% 30.06 in 10.0 mi North 4.6 mph - N/A   Mostly Cloudy
9:54 PM 39.6 °F 37.4 °F 28.6 °F 65% 30.06 in 10.0 mi NNW 3.5 mph - N/A   Mostly Cloudy
10:15 PM 38.7 °F - 27.1 °F 63% 30.07 in 10.0 mi Calm Calm - N/A   Scattered Clouds
10:35 PM 38.3 °F - 27.9 °F 66% 30.07 in 10.0 mi Calm Calm - N/A   Mostly Cloudy
10:54 PM 38.3 °F 33.9 °F 30.2 °F 73% 30.07 in 7.0 mi NNE 5.8 mph - N/A   Light Drizzle
11:15 PM 37.0 °F - 30.6 °F 77% 30.07 in 10.0 mi Calm Calm - N/A   Scattered Clouds
11:35 PM 35.8 °F - 31.6 °F 85% 30.07 in 10.0 mi Calm Calm - N/A   Mostly Cloudy
11:54 PM 35.8 °F - 32.0 °F 86% 30.07 in 10.0 mi Calm Calm - N/A   Scattered Clouds